TimeCST,TemperatureF,Dew PointF,Humidity,Sea Level PressureIn,VisibilityMPH,Wind Direction,Wind SpeedMPH,Gust SpeedMPH,PrecipitationIn,Events,Conditions,WindDirDegrees,DateUTC
12:15 AM,29.1,20.1,69,30.17,10.0,NW,20.7,41.4,N/A,,Scattered Clouds,320,2013-01-20 06:15:00
12:35 AM,27.7,15.6,61,30.19,10.0,NW,25.3,38.0,N/A,,Scattered Clouds,310,2013-01-20 06:35:00
12:55 AM,26.6,17.6,69,30.20,10.0,NW,19.6,28.8,N/A,,Clear,310,2013-01-20 06:55:00
1:15 AM,25.3,12.7,59,30.22,10.0,NW,25.3,33.4,N/A,,Clear,320,2013-01-20 07:15:00
1:35 AM,24.3,13.5,63,30.23,10.0,NW,18.4,25.3,N/A,,Clear,320,2013-01-20 07:35:00
1:55 AM,23.2,13.1,65,30.24,10.0,WNW,23.0,-,N/A,,Clear,300,2013-01-20 07:55:00
2:15 AM,22.5,11.5,63,30.25,10.0,NW,19.6,29.9,N/A,,Clear,310,2013-01-20 08:15:00
2:35 AM,22.1,11.1,63,30.26,10.0,WNW,19.6,27.6,N/A,,Clear,300,2013-01-20 08:35:00
2:55 AM,21.7,10.6,62,30.27,10.0,NW,19.6,24.2,N/A,,Clear,310,2013-01-20 08:55:00
3:15 AM,21.6,12.2,67,30.28,10.0,NW,20.7,27.6,N/A,,Clear,310,2013-01-20 09:15:00
3:35 AM,20.1,8.4,61,30.29,10.0,NW,17.3,28.8,N/A,,Clear,320,2013-01-20 09:35:00
3:55 AM,20.1,10.9,68,30.30,10.0,WNW,21.9,-,N/A,,Clear,300,2013-01-20 09:55:00
4:15 AM,18.5,7.2,61,30.30,10.0,NW,21.9,34.5,N/A,,Clear,320,2013-01-20 10:15:00
4:35 AM,18.1,8.4,66,30.29,10.0,NW,19.6,25.3,N/A,,Clear,320,2013-01-20 10:35:00
4:55 AM,18.0,8.6,67,30.30,10.0,NW,15.0,21.9,N/A,,Clear,310,2013-01-20 10:55:00
5:15 AM,17.4,8.4,68,30.30,10.0,NW,16.1,23.0,N/A,,Clear,320,2013-01-20 11:15:00
5:35 AM,16.7,7.2,66,30.31,10.0,NNW,19.6,25.3,N/A,,Clear,330,2013-01-20 11:35:00
5:55 AM,17.6,8.6,68,30.32,10.0,NNW,18.4,-,N/A,,Clear,330,2013-01-20 11:55:00
6:15 AM,16.5,8.6,71,30.32,10.0,NNW,16.1,19.6,N/A,,Clear,330,2013-01-20 12:15:00
6:35 AM,16.2,8.4,72,30.33,10.0,NW,12.7,-,N/A,,Clear,320,2013-01-20 12:35:00
6:55 AM,15.8,8.8,74,30.33,10.0,NNW,17.3,-,N/A,,Clear,330,2013-01-20 12:55:00
7:15 AM,15.8,9.3,76,30.34,10.0,NNW,11.5,-,N/A,,Clear,340,2013-01-20 13:15:00
7:35 AM,15.4,8.8,75,30.34,10.0,NNW,11.5,-,N/A,,Clear,340,2013-01-20 13:35:00
7:55 AM,15.4,8.1,73,30.35,10.0,NNW,15.0,-,N/A,,Scattered Clouds,340,2013-01-20 13:55:00
8:15 AM,15.6,8.1,72,30.34,10.0,NNW,11.5,-,N/A,,Clear,330,2013-01-20 14:15:00
8:35 AM,16.5,8.4,70,30.35,10.0,NW,12.7,-,N/A,,Clear,320,2013-01-20 14:35:00
8:55 AM,16.5,9.0,72,30.35,10.0,North,9.2,-,N/A,,Scattered Clouds,350,2013-01-20 14:55:00
9:15 AM,16.5,8.8,72,30.36,10.0,NNW,8.1,-,N/A,,Scattered Clouds,330,2013-01-20 15:15:00
9:35 AM,17.2,8.8,69,30.37,10.0,NW,8.1,-,N/A,,Scattered Clouds,310,2013-01-20 15:35:00
9:55 AM,17.8,8.8,68,30.38,10.0,NNW,8.1,-,N/A,,Clear,330,2013-01-20 15:55:00
10:15 AM,18.3,9.0,67,30.38,10.0,NW,6.9,-,N/A,,Clear,310,2013-01-20 16:15:00
10:35 AM,18.3,8.6,66,30.38,10.0,NNW,9.2,-,N/A,,Clear,330,2013-01-20 16:35:00
10:55 AM,18.9,8.8,65,30.38,10.0,NW,9.2,-,N/A,,Scattered Clouds,320,2013-01-20 16:55:00
11:15 AM,19.4,9.3,65,30.38,10.0,NNW,9.2,-,N/A,,Scattered Clouds,330,2013-01-20 17:15:00
11:35 AM,19.2,9.3,65,30.38,10.0,NW,10.4,-,N/A,,Clear,310,2013-01-20 17:35:00
11:55 AM,19.4,8.1,61,30.36,10.0,NW,10.4,-,N/A,,Clear,310,2013-01-20 17:55:00
12:15 PM,19.6,9.0,63,30.36,10.0,NW,11.5,-,N/A,,Clear,310,2013-01-20 18:15:00
12:35 PM,20.1,9.9,64,30.35,10.0,NW,11.5,16.1,N/A,,Mostly Cloudy,320,2013-01-20 18:35:00
12:55 PM,20.3,7.7,58,30.35,10.0,NNW,11.5,-,N/A,,Mostly Cloudy,340,2013-01-20 18:55:00
1:15 PM,20.1,7.9,59,30.35,10.0,NNW,10.4,-,N/A,,Overcast,330,2013-01-20 19:15:00
1:35 PM,19.9,6.8,57,30.34,10.0,NW,9.2,-,N/A,,Overcast,320,2013-01-20 19:35:00
1:55 PM,19.8,8.1,61,30.34,10.0,NW,5.8,-,N/A,,Overcast,310,2013-01-20 19:55:00
2:15 PM,19.4,10.4,68,30.34,10.0,NNW,10.4,-,N/A,,Overcast,330,2013-01-20 20:15:00
2:35 PM,19.2,12.4,75,30.35,7.0,NW,9.2,-,N/A,Snow,Light Snow,320,2013-01-20 20:35:00
2:55 PM,19.2,13.1,77,30.35,4.0,NW,9.2,-,N/A,Snow,Light Snow,320,2013-01-20 20:55:00
3:15 PM,19.0,13.5,79,30.35,5.0,NW,8.1,-,N/A,Snow,Light Snow,310,2013-01-20 21:15:00
3:35 PM,18.7,14.2,83,30.35,5.0,NW,9.2,-,N/A,Snow,Light Snow,320,2013-01-20 21:35:00
3:55 PM,18.9,14.4,83,30.35,7.0,NW,11.5,-,N/A,Snow,Light Snow,310,2013-01-20 21:55:00
4:15 PM,18.5,13.6,81,30.34,10.0,NW,12.7,-,N/A,Snow,Light Snow,320,2013-01-20 22:15:00
4:35 PM,18.3,13.6,82,30.34,5.0,NW,12.7,-,N/A,Snow,Light Snow,320,2013-01-20 22:35:00
4:55 PM,18.3,14.0,83,30.34,7.0,NW,11.5,-,N/A,Snow,Light Snow,310,2013-01-20 22:55:00
5:15 PM,18.1,14.0,84,30.34,10.0,NW,11.5,-,N/A,,Overcast,310,2013-01-20 23:15:00
5:35 PM,18.0,14.0,84,30.34,10.0,WNW,11.5,-,N/A,,Overcast,300,2013-01-20 23:35:00
5:55 PM,18.0,14.0,84,30.35,10.0,WNW,11.5,-,N/A,,Mostly Cloudy,290,2013-01-20 23:55:00
6:15 PM,17.6,14.0,86,30.35,10.0,WNW,11.5,-,N/A,,Overcast,300,2013-01-21 00:15:00
6:35 PM,17.6,14.5,88,30.34,10.0,WNW,11.5,-,N/A,Snow,Light Snow,300,2013-01-21 00:35:00
6:55 PM,17.2,13.5,85,30.35,10.0,WNW,9.2,-,N/A,Snow,Light Snow,300,2013-01-21 00:55:00
7:15 PM,17.2,12.9,83,30.34,10.0,WNW,11.5,-,N/A,,Overcast,300,2013-01-21 01:15:00
7:35 PM,17.1,12.9,84,30.34,10.0,NW,9.2,-,N/A,,Overcast,310,2013-01-21 01:35:00
7:55 PM,17.2,13.1,84,30.33,10.0,WNW,10.4,-,N/A,,Overcast,300,2013-01-21 01:55:00
8:15 PM,17.1,11.8,80,30.33,10.0,NW,15.0,-,N/A,,Overcast,310,2013-01-21 02:15:00
8:35 PM,16.7,11.8,81,30.33,10.0,WNW,13.8,-,N/A,,Overcast,300,2013-01-21 02:35:00
8:55 PM,16.7,11.8,81,30.33,10.0,NW,11.5,-,N/A,,Overcast,310,2013-01-21 02:55:00
9:15 PM,16.7,11.8,81,30.33,10.0,WNW,13.8,-,N/A,,Overcast,300,2013-01-21 03:15:00
9:35 PM,16.0,10.8,80,30.32,10.0,WNW,11.5,-,N/A,,Overcast,300,2013-01-21 03:35:00
9:55 PM,15.4,10.6,81,30.33,10.0,WNW,11.5,-,N/A,,Overcast,300,2013-01-21 03:55:00
10:15 PM,15.4,10.4,80,30.33,10.0,WNW,11.5,-,N/A,,Overcast,300,2013-01-21 04:15:00
10:35 PM,14.9,10.8,84,30.33,10.0,WNW,9.2,-,N/A,,Overcast,300,2013-01-21 04:35:00
10:55 PM,15.4,10.9,82,30.33,10.0,WNW,11.5,-,N/A,,Overcast,290,2013-01-21 04:55:00
11:15 PM,14.7,9.9,81,30.33,10.0,WNW,10.4,-,N/A,,Mostly Cloudy,290,2013-01-21 05:15:00
11:35 PM,15.3,10.9,83,30.33,10.0,West,16.1,-,N/A,,Overcast,280,2013-01-21 05:35:00
11:55 PM,14.4,9.0,79,30.33,10.0,WNW,15.0,19.6,N/A,,Overcast,300,2013-01-21 05:55:00